Temperature
8 8 8 7 7 7 6 6 5 5 5 6 5 5 5 5 5 5 5 5 5 4 4 4 4 4 4 4 4 4 4 4 4 4 4 4 4 4
7 7 7 7 7 7 6 6 5 5 4 5 5 5 5 5 4 4 4 4 4 4 4 4 4 4 4 4 4 4 4 4 4 4 3 3 3 3
7 7 7 6 6 6 6 5 5 4 4 4 4 4 4 4 4 4 4 3 3 3 3 3 3 3 3 3 3 3 3 3 3 3 3 3 3 3
6 6 6 6 6 5 5 5 4 4 4 3 4 3 3 3 3 3 3 3 3 3 3 3 3 3 3 3 3 3 2 2 2 2 2 2 2 2
6 6 5 5 5 5 4 4 4 3 3 3 3 3 3 3 2 2 2 2 2 2 2 2 2 2 2 2 2 2 2 2 2 2 2 1 1 1
5 5 5 4 4 4 4 3 3 3 3 2 2 2 2 2 2 2 2 2 2 2 2 2 2 2 2 2 1 1 1 1 1 1 1 1 1 1
4 4 4 4 3 3 3 3 3 2 2 2 2 2 2 1 1 1 1 1 2 1 1 2 1 1 1 1 1 1 1 1 1 1 1 1 1 0
4 3 3 3 3 2 2 2 2 2 2 1 1 1 1 1 1 1 1 1 1 1 1 1 1 1 1 1 1 0 0 1 1 1 1 0 0 0
3 3 2 2 2 2 2 2 1 1 1 1 1 1 1 1 1 1 1 0 0 0 -0 0 1 1 1 0 0 0 0 0 0 0 0 -0 -0 0
2 2 2 1 1 1 1 1 1 1 1 1 1 1 0 0 0 0 -0 -0 -0 -0 -1 -1 -0 -0 0 0 0 -0 -0 -0 -0 -0 -0 -0 -0 -0
1 1 1 1 1 1 1 1 1 1 1 0 0 0 0 0 -0 -0 -0 -1 -1 -0 -1 -1 -1 -1 -0 -0 -0 -0 -1 -1 -1 -1 -1 -1 -1 -1
1 0 0 -0 -0 -0 -0 -0 0 0 0 0 0 0 -0 -0 -1 -1 -1 -1 -2 -2 -2 -2 -2 -2 -2 -1 -1 -1 -1 -1 -1 -1 -1 -1 -1 -1
-0 -0 -0 -1 -1 -1 -1 -1 -1 -1 -1 -1 -1 -1 -1 -1 -1 -1 -2 -2 -2 -3 -2 -3 -3 -3 -3 -3 -2 -2 -2 -2 -1 -1 -1 -1 -1 -2
-1 -1 -1 -1 -1 -1 -1 -1 -1 -1 -1 -1 -1 -1 -1 -1 -2 -2 -2 -2 -3 -3 -3 -3 -3 -4 -4 -4 -3 -2 -2 -2 -2 -2 -2 -2 -2 -2
-2 -2 -2 -2 -2 -2 -2 -2 -2 -2 -2 -2 -2 -2 -2 -2 -2 -2 -3 -3 -3 -3 -3 -3 -4 -4 -4 -4 -4 -3 -3 -3 -3 -3 -3 -3 -3 -3
-2 -2 -2 -2 -2 -3 -3 -3 -3 -3 -3 -3 -3 -3 -3 -3 -3 -3 -3 -3 -3 -3 -3 -3 -4 -4 -4 -4 -4 -4 -4 -4 -4 -4 -4 -3 -3 -3
-3 -3 -3 -3 -3 -3 -3 -3 -3 -3 -4 -4 -4 -4 -4 -4 -4 -4 -4 -4 -4 -4 -3 -3 -4 -4 -4 -4 -4 -4 -4 -4 -4 -4 -4 -4 -3 -3
-3 -3 -3 -4 -4 -4 -4 -4 -4 -4 -4 -4 -4 -5 -5 -5 -5 -5 -5 -5 -5 -5 -5 -5 -5 -4 -4 -4 -4 -4 -4 -5 -4 -4 -5 -5 -4 -3
-4 -4 -4 -4 -4 -4 -5 -5 -5 -5 -5 -5 -5 -5 -5 -6 -5 -5 -5 -6 -5 -5 -5 -5 -6 -6 -6 -6 -5 -4 -5 -5 -5 -5 -5 -5 -5 -4
-5 -5 -5 -5 -5 -5 -5 -5 -5 -5 -5 -6 -6 -6 -6 -6 -6 -6 -6 -6 -6 -6 -6 -5 -6 -6 -7 -7 -6 -5 -5 -5 -6 -5 -5 -5 -4 -4
-5 -6 -6 -6 -6 -6 -6 -6 -6 -6 -6 -6 -6 -6 -7 -7 -7 -7 -7 -7 -6 -6 -6 -6 -6 -6 -6 -6 -6 -5 -5 -5 -5 -6 -5 -5 -5 -5
-6 -6 -6 -6 -6 -6 -6 -6 -6 -6 -7 -7 -7 -7 -7 -7 -7 -7 -7 -7 -7 -7 -7 -6 -6 -6 -6 -7 -7 -6 -5 -5 -5 -5 -5 -5 -6 -5
-7 -6 -7 -7 -7 -7 -7 -7 -7 -7 -7 -7 -7 -7 -7 -7 -7 -7 -7 -7 -7 -7 -7 -7 -6 -6 -6 -6 -6 -6 -6 -5 -5 -5 -4 -5 -5 -5
Wind_Speed
1 2 1 2 1 1 1 1 2 4 6 3 2 2 4 5 7 8 8 12 14 14 15 15 15 15 15 15 16 16 17 17 17 17 18 18 19 19
1 1 1 1 1 1 1 2 2 3 6 4 3 4 5 7 9 9 10 13 13 14 15 15 15 15 15 16 16 16 16 16 16 16 17 17 18 18
1 1 2 2 1 2 2 2 2 2 5 6 4 4 4 5 7 9 10 10 11 14 15 15 15 15 16 16 16 16 16 16 16 16 17 17 18 18
1 1 2 2 2 2 2 2 2 3 4 7 6 5 5 5 6 6 8 10 10 13 15 15 15 16 16 16 16 16 16 16 16 17 17 18 18 19
1 2 2 2 3 2 2 3 3 3 3 4 6 5 5 5 6 7 7 7 10 12 14 14 15 15 16 16 16 17 17 17 17 17 18 18 19 20
2 2 2 2 3 3 2 3 3 3 3 4 5 5 6 5 5 6 7 6 7 9 11 13 14 15 16 17 17 17 16 17 18 18 18 19 19 20
2 2 2 3 4 3 3 3 3 3 3 4 5 6 6 5 6 6 7 8 7 5 6 7 8 8 11 15 16 16 17 17 18 19 19 19 20 20
2 2 3 3 4 5 6 6 5 4 4 5 5 6 7 6 6 6 7 7 7 4 5 8 6 7 8 10 15 17 17 18 18 19 20 20 20 20
2 2 3 3 4 3 4 6 6 7 7 6 6 7 7 7 7 8 7 8 8 7 6 8 5 7 8 12 16 17 18 18 19 19 20 20 20 20
2 2 2 3 3 4 3 4 4 5 6 5 4 6 6 6 6 7 8 8 8 6 4 7 6 7 9 10 15 17 17 18 19 20 20 20 20 20
3 3 3 2 5 6 4 4 5 5 7 8 9 9 11 11 9 6 6 6 7 6 3 4 6 7 7 7 10 15 16 18 19 20 20 20 20 19
2 3 4 5 6 7 5 4 5 6 6 7 7 8 8 8 9 5 5 6 6 6 3 3 5 5 5 4 5 9 11 16 18 19 19 19 19 13
2 3 4 7 8 8 7 4 6 7 6 5 5 5 5 4 5 5 5 4 6 6 5 4 5 5 5 7 6 6 8 9 11 13 16 18 18 14
2 3 4 8 8 9 6 7 9 8 4 4 5 5 5 5 5 6 7 7 7 8 9 7 5 6 7 9 8 6 6 8 8 8 10 15 16 17
3 5 7 8 7 6 7 8 7 4 4 4 5 5 5 6 6 6 7 7 8 9 9 8 6 7 7 8 8 8 8 7 6 6 7 8 8 9
3 5 7 7 5 6 6 5 3 3 4 4 5 5 5 5 5 5 6 6 6 6 6 8 8 7 7 8 8 9 8 6 6 7 8 8 8 8
3 3 2 3 3 3 3 3 3 3 4 4 4 5 5 5 5 5 5 5 6 7 7 6 7 8 7 8 8 8 8 7 7 8 8 9 8 7
4 2 3 3 3 3 4 4 3 3 4 4 4 5 5 6 6 5 5 5 6 7 7 7 7 7 6 5 6 7 7 7 7 8 7 8 9 7
2 2 2 3 3 4 3 4 4 4 4 4 4 5 5 6 6 6 6 6 6 7 7 6 6 6 8 9 6 5 6 8 8 8 7 7 9 9
2 2 3 3 3 4 4 4 4 4 4 4 4 5 5 6 6 6 6 7 7 7 7 6 5 6 7 8 8 8 10 8 8 9 8 7 7 9
2 3 3 3 3 4 4 4 4 4 4 4 5 5 5 5 6 6 6 9 8 7 8 8 8 11 7 6 7 7 7 10 10 9 9 8 8 6
3 3 3 3 3 4 4 4 4 4 5 5 5 5 5 5 6 6 6 7 7 7 8 8 8 7 5 6 8 10 10 10 12 13 11 9 6 5
3 3 3 3 3 3 4 5 5 5 5 5 5 5 5 6 6 6 6 6 7 8 8 8 7 6 6 6 8 8 10 11 9 9 8 10 11 12
Wind_Direction
262 265 265 275 279 277 267 218 239 284 290 287 307 311 323 319 314 314 307 308 307 308 310 310 309 308 309 309 309 308 307 305 304 302 302 302 301 299
288 304 297 296 295 287 269 259 240 248 275 284 292 300 318 317 312 314 306 306 305 308 309 308 307 307 309 309 309 309 309 309 307 304 301 301 300 299
316 300 294 298 300 300 289 275 272 259 274 288 292 309 317 316 315 312 307 304 301 304 305 305 306 307 308 308 309 309 309 308 307 305 303 302 301 300
299 300 291 304 311 304 296 289 285 277 272 288 300 310 307 310 309 308 312 311 306 304 304 304 305 307 307 307 307 308 308 306 305 303 303 302 301 301
308 305 306 317 310 307 305 300 295 299 293 287 295 303 304 309 312 308 306 307 307 309 310 308 306 307 307 305 304 304 303 303 303 302 302 301 300 298
336 329 323 312 302 303 303 297 297 300 300 296 297 301 301 303 309 310 309 306 302 309 309 306 304 305 305 303 302 302 302 303 303 303 302 300 298 297
335 330 334 328 323 319 314 310 313 305 304 300 298 300 301 307 306 306 303 306 296 297 304 302 302 300 301 300 299 299 302 304 305 306 303 301 299 296
316 325 331 330 328 335 329 323 312 301 296 292 292 293 296 299 300 303 305 308 304 300 304 299 298 294 295 297 300 303 304 305 306 306 305 304 302 300
308 322 325 333 340 341 334 336 331 318 302 286 285 288 292 297 301 302 300 296 290 295 303 294 293 291 299 301 302 305 307 308 307 306 306 306 305 303
312 310 312 324 328 334 333 326 313 309 304 301 283 288 293 295 290 289 292 296 291 289 295 289 297 297 302 301 301 306 309 310 311 309 308 308 307 305
323 324 329 328 326 333 334 321 318 315 315 312 310 309 311 313 314 312 307 305 300 298 296 286 295 304 299 290 298 307 310 312 313 312 312 313 311 309
331 334 335 333 333 339 337 324 319 320 326 327 324 321 322 322 325 324 312 307 303 299 307 310 302 317 307 290 300 312 313 313 315 314 315 315 315 313
336 335 330 330 333 333 334 328 318 323 327 328 325 324 327 332 335 332 321 300 296 289 299 311 300 301 287 296 301 303 310 314 316 313 314 316 317 315
327 323 322 325 329 333 334 330 331 335 335 330 328 326 328 327 324 326 320 312 294 286 293 295 287 295 297 297 299 301 305 312 314 309 313 315 314 311
323 319 323 327 331 333 331 334 342 345 335 328 322 321 320 319 322 321 318 316 308 303 301 299 291 292 288 291 297 300 307 306 306 309 314 314 311 311
339 328 330 333 337 334 336 339 341 334 332 322 319 318 321 325 326 326 324 325 321 315 313 314 309 300 297 292 292 298 303 301 310 311 310 308 307 305
326 326 331 334 334 332 333 335 337 341 336 328 325 325 324 324 323 325 323 323 321 319 321 323 321 309 288 286 293 294 298 299 302 310 312 308 304 301
326 324 320 320 320 324 327 329 331 332 329 327 324 322 319 317 317 320 322 325 323 320 319 320 325 325 319 293 264 288 301 302 307 307 305 307 307 306
332 318 310 310 313 316 317 317 316 316 318 318 317 316 315 314 316 319 322 324 321 317 316 318 324 327 326 321 304 285 301 308 311 310 305 301 302 306
320 307 305 307 309 310 312 312 312 317 318 315 314 313 314 314 315 318 320 320 318 316 315 317 320 320 311 305 301 300 300 298 306 309 308 303 296 296
305 303 303 306 308 307 309 310 308 309 312 311 310 310 310 311 311 314 315 316 316 314 315 315 308 311 302 299 300 305 306 306 301 300 306 308 311 315
299 299 302 302 304 304 308 311 311 311 312 309 309 309 308 307 308 310 311 312 312 310 309 308 310 316 315 310 308 309 313 317 315 308 298 292 301 306
297 298 299 301 303 305 306 305 304 305 308 308 308 307 306 307 307 307 307 309 310 311 313 314 316 315 313 310 309 311 313 318 321 324 318 314 306 298
Height
1519 1519 1518 1518 1518 1518 1517 1516 1515 1510 1507 1507 1507 1505 1504 1502 1501 1498 1496 1493 1491 1488 1486 1483 1481 1478 1475 1473 1470 1467 1465 1462 1460 1458 1456 1454 1452 1450
1516 1515 1515 1514 1514 1513 1513 1512 1511 1509 1505 1502 1502 1501 1500 1498 1496 1494 1491 1488 1486 1483 1481 1478 1476 1473 1470 1468 1465 1462 1459 1457 1454 1452 1450 1448 1446 1444
1512 1512 1511 1511 1510 1509 1509 1508 1507 1506 1502 1498 1498 1497 1495 1493 1490 1488 1486 1483 1480 1478 1476 1473 1471 1468 1465 1463 1460 1457 1454 1452 1449 1446 1444 1442 1440 1438
1508 1508 1507 1506 1505 1505 1504 1503 1502 1501 1499 1495 1493 1492 1490 1488 1485 1483 1481 1478 1476 1473 1471 1468 1466 1463 1461 1458 1455 1452 1449 1446 1444 1441 1438 1436 1434 1431
1505 1504 1503 1502 1501 1500 1500 1499 1498 1496 1495 1492 1488 1487 1485 1483 1481 1478 1476 1473 1471 1468 1466 1463 1461 1458 1455 1452 1450 1447 1444 1441 1438 1435 1433 1430 1427 1425
1501 1500 1499 1498 1497 1496 1495 1495 1493 1492 1490 1488 1485 1483 1481 1479 1477 1474 1470 1468 1466 1463 1461 1458 1456 1453 1450 1447 1444 1441 1439 1436 1433 1430 1427 1424 1421 1418
1497 1496 1495 1495 1494 1493 1492 1491 1490 1488 1486 1484 1482 1479 1477 1475 1473 1470 1467 1463 1460 1459 1455 1453 1450 1447 1445 1442 1439 1436 1433 1430 1427 1424 1421 1418 1415 1412
1493 1492 1492 1491 1490 1489 1488 1487 1486 1485 1482 1481 1478 1476 1473 1472 1469 1467 1463 1459 1455 1454 1451 1447 1446 1442 1439 1437 1434 1431 1428 1425 1422 1419 1415 1412 1409 1406
1490 1489 1488 1487 1486 1485 1484 1483 1482 1481 1480 1478 1475 1472 1470 1468 1466 1462 1459 1456 1452 1449 1446 1442 1440 1437 1434 1432 1429 1426 1423 1420 1416 1413 1409 1406 1402 1399
1486 1485 1485 1483 1483 1482 1480 1479 1478 1477 1475 1473 1472 1469 1467 1464 1462 1459 1456 1452 1448 1446 1443 1438 1434 1432 1429 1426 1424 1421 1418 1414 1411 1407 1403 1400 1396 1393
1483 1482 1481 1480 1479 1478 1477 1475 1473 1472 1471 1469 1467 1465 1462 1460 1458 1455 1451 1448 1443 1440 1439 1435 1430 1426 1423 1420 1418 1415 1412 1409 1405 1401 1397 1394 1390 1386
1480 1479 1478 1477 1476 1475 1473 1471 1469 1467 1466 1464 1462 1460 1458 1455 1453 1451 1448 1444 1440 1436 1434 1431 1427 1423 1417 1414 1412 1410 1407 1403 1400 1396 1392 1388 1384 1380
1476 1475 1474 1474 1473 1471 1470 1468 1466 1464 1462 1459 1457 1455 1453 1451 1449 1446 1444 1441 1437 1433 1431 1428 1424 1420 1417 1410 1406 1404 1402 1398 1394 1390 1387 1383 1379 1376
1473 1472 1471 1471 1470 1468 1466 1465 1463 1461 1458 1456 1453 1451 1449 1446 1444 1442 1439 1437 1434 1431 1427 1424 1421 1417 1413 1407 1402 1398 1396 1393 1389 1385 1381 1378 1374 1371
1470 1470 1468 1467 1466 1464 1463 1461 1459 1457 1455 1452 1450 1448 1445 1443 1440 1438 1435 1432 1429 1427 1424 1421 1417 1414 1410 1405 1400 1395 1391 1387 1384 1380 1376 1373 1369 1366
1467 1466 1465 1464 1463 1461 1460 1458 1456 1454 1452 1450 1447 1445 1442 1440 1437 1434 1431 1428 1425 1422 1420 1417 1413 1410 1406 1402 1398 1392 1389 1384 1380 1376 1372 1368 1365 1362
1464 1463 1462 1460 1459 1458 1456 1455 1453 1451 1449 1447 1444 1442 1439 1437 1434 1432 1429 1425 1422 1418 1415 1412 1409 1406 1402 1399 1394 1390 1385 1381 1378 1373 1368 1363 1360 1358
1462 1460 1459 1457 1456 1455 1453 1452 1450 1448 1446 1444 1441 1439 1436 1434 1431 1429 1426 1423 1419 1416 1412 1409 1405 1401 1397 1394 1393 1387 1383 1378 1374 1370 1366 1360 1355 1353
1458 1456 1455 1454 1453 1452 1450 1449 1447 1445 1443 1441 1439 1436 1434 1431 1428 1426 1423 1420 1417 1413 1410 1407 1403 1399 1395 1390 1388 1386 1381 1375 1371 1366 1363 1358 1353 1349
1454 1453 1452 1451 1450 1449 1447 1445 1444 1442 1439 1438 1435 1433 1431 1428 1426 1423 1420 1417 1414 1411 1407 1404 1401 1398 1395 1390 1385 1381 1379 1374 1369 1363 1359 1355 1350 1347
1451 1450 1449 1448 1447 1445 1444 1442 1440 1438 1436 1434 1432 1430 1428 1426 1423 1421 1418 1415 1412 1408 1404 1401 1399 1396 1392 1388 1383 1378 1375 1372 1368 1362 1357 1352 1347 1343
1448 1447 1446 1445 1443 1442 1440 1438 1437 1435 1433 1431 1429 1427 1425 1423 1421 1418 1415 1412 1409 1406 1402 1399 1396 1393 1389 1385 1380 1375 1371 1367 1364 1360 1356 1352 1348 1342
1444 1443 1442 1441 1440 1438 1437 1435 1433 1431 1429 1427 1426 1424 1422 1420 1418 1415 1412 1409 1406 1403 1400 1396 1393 1390 1386 1383 1379 1374 1369 1364 1360 1356 1353 1350 1347 1343